Location: Peterborough
(44.3091°N, 78.3197°W)
Time: 14:53:14
(UTC-04:00)

A-11 Canister half - Pass Details

Date: 11 December 2023
Orbit: 1515 x 1685 km, 47.2° (Epoch: 12 October)

Event Time Altitude Azimuth Distance (km) Brightness Sun altitude
Exits shadow 06:40:17 10° 278° (W) 3,883 10.5 -10.1°
Maximum altitude 06:47:18 23° 232° (SW) 3,044 10.3 -9.0°
Drops below altitude 10° 06:54:31 10° 186° (S) 3,939 11.4 -7.8°
Sets 06:58:36 0° 173° (S) 4,923 12.1 -7.1°
